Weather History for Manhattan, KS

Change the Weather History Date:

Monday, December 17, 2012

  Actual Average Record
Temperature  
Mean Temperature 38 °F 30 °F  
Max Temperature 51 °F 41 °F 59 °F (2002)
Min Temperature 24 °F 19 °F -6 °F (2008)
Degree Days  
Heating Degree Days 27 35  
Month to date heating degree days 423 557  
Since 1 July heating degree days 1381 1632  
Cooling Degree Days 0 0  
Month to date cooling degree days 0 0  
Year to date cooling degree days 1788 1362  
Moisture  
Dew Point 28 °F    
Average Humidity 67    
Maximum Humidity 92    
Minimum Humidity 41    
Precipitation  
Precipitation 0.00 in 0.03 in 0.19 in (2005)
Month to date precipitation 0.10 0.61  
Year to date precipitation 21.56 32.14  
Sea Level Pressure  
Sea Level Pressure 29.76 in    
Wind  
Wind Speed 4 mph (WSW)    
Max Wind Speed 18 mph    
Max Gust Speed 24 mph    
Visibility 6 miles    
Events Fog    
T = Trace of Precipitation, MM = Missing Value Source: NWS Daily Summary

Daily Weather History Graph

Daily Weather History Graph

Search for Another Location

Airport:

Trip Planner

Search our weather history database for the weather conditions in past years. The results will help you decide how hot, cold, wet, or windy it might be!

Date:

Astronomy

Dec. 17, 2012 Rise Set
Actual Time 7:40 AM CST 5:05 PM CST
Civil Twilight 7:10 AM CST 5:35 PM CST
Nautical Twilight 6:36 AM CST 6:09 PM CST
Astronomical Twilight 6:04 AM CST 6:42 PM CST
Moon 10:51 AM CST (12/17) 10:26 PM CST (12/17)
Length of Visible Light 10h 25m
Length of Day
9h 25m
Waxing Crescent, 25% of the Moon is Illuminated
Dec 17
Waxing Crescent
Dec 19
First Quarter
Dec 28
Full
Jan 4
Last Quarter
Jan 11
New

Hourly Weather History & Observations

Time (CST) Temp. Windchill Dew Point Humidity Pressure Visibility Wind Dir Wind Speed Gust Speed Precip Events Conditions
12:52 AM 35.1 °F - 30.0 °F 82% 29.83 in 8.0 mi Calm Calm - N/A   Overcast
1:11 AM 33.8 °F - 28.4 °F 81% 29.80 in 8.0 mi Calm Calm - N/A   Scattered Clouds
1:47 AM 33.8 °F - 28.4 °F 81% 29.80 in 7.0 mi Calm Calm - N/A   Mostly Cloudy
1:52 AM 33.1 °F - 28.9 °F 85% 29.83 in 7.0 mi Calm Calm - N/A   Mostly Cloudy
2:52 AM 34.0 °F - 30.0 °F 85% 29.82 in 7.0 mi Calm Calm - N/A   Overcast
3:52 AM 30.9 °F - 28.0 °F 89% 29.80 in 6.0 mi Calm Calm - N/A   Mostly Cloudy
4:05 AM 30.2 °F 26.7 °F 28.4 °F 93% 29.78 in 6.0 mi West 3.5 mph - N/A   Scattered Clouds
4:52 AM 30.0 °F 26.5 °F 28.0 °F 92% 29.81 in 5.0 mi West 3.5 mph - N/A   Partly Cloudy
5:52 AM 30.0 °F - 28.0 °F 92% 29.80 in 4.0 mi Calm Calm - N/A   Clear
6:52 AM 27.0 °F - 25.0 °F 92% 29.80 in 3.0 mi Calm Calm - N/A   Clear
7:12 AM 26.6 °F - 24.8 °F 93% 29.77 in 2.5 mi Calm Calm - N/A   Clear
7:33 AM 26.6 °F - 23.0 °F 86% 29.77 in 1.0 mi Calm Calm - N/A   Clear
7:41 AM 24.8 °F - 23.0 °F 93% 29.77 in 0.5 mi Calm Calm - N/A Fog Light Freezing Fog
7:52 AM 25.0 °F - 23.0 °F 92% 29.80 in 0.2 mi Calm Calm - N/A Fog Light Freezing Fog
8:03 AM 26.6 °F 22.6 °F 24.8 °F 93% 29.77 in 1.0 mi SW 3.5 mph - N/A   Mist
8:10 AM 26.6 °F 22.6 °F 24.8 °F 93% 29.77 in 1.8 mi SW 3.5 mph - N/A   Partly Cloudy
8:25 AM 24.8 °F - 23.0 °F 93% 29.77 in 2.0 mi Calm Calm - N/A   Scattered Clouds
8:35 AM 26.6 °F - 24.8 °F 93% 29.77 in 2.0 mi Calm Calm - N/A   Mostly Cloudy
8:52 AM 30.0 °F 26.5 °F 28.0 °F 92% 29.80 in 1.8 mi WSW 3.5 mph - N/A   Overcast
9:32 AM 32.0 °F 26.4 °F 30.2 °F 93% 29.78 in 2.0 mi WSW 5.8 mph - N/A   Overcast
9:52 AM 33.1 °F 27.7 °F 30.9 °F 92% 29.80 in 3.0 mi WSW 5.8 mph - N/A   Overcast
10:32 AM 37.4 °F 32.8 °F 32.0 °F 81% 29.78 in 6.0 mi WSW 5.8 mph - N/A   Haze
10:52 AM 39.9 °F 35.8 °F 30.9 °F 70% 29.80 in 8.0 mi WNW 5.8 mph - N/A   Clear
11:52 AM 45.0 °F 41.8 °F 32.0 °F 60% 29.78 in 10.0 mi Variable 5.8 mph - N/A   Clear
12:52 PM 46.9 °F - 30.9 °F 54% 29.75 in 10.0 mi WSW 8.1 mph - N/A   Clear
1:52 PM 50.0 °F - 28.0 °F 43% 29.72 in 10.0 mi WSW 5.8 mph - N/A   Clear
2:52 PM 51.1 °F - 28.0 °F 41% 29.70 in 10.0 mi SW 8.1 mph - N/A   Clear
3:52 PM 50.0 °F - 28.0 °F 43% 29.70 in 10.0 mi SSW 8.1 mph - N/A   Clear
6:52 PM 35.1 °F 32.2 °F 25.0 °F 67% 29.70 in 10.0 mi SSW 3.5 mph - N/A   Clear
7:52 PM 30.9 °F - 24.1 °F 76% 29.70 in 10.0 mi Calm Calm - N/A   Clear
8:52 PM 28.9 °F - 24.1 °F 82% 29.68 in 10.0 mi Calm Calm - N/A   Clear
9:52 PM 42.1 °F 35.7 °F 28.0 °F 58% 29.64 in 10.0 mi SSW 11.5 mph - N/A   Clear
10:52 PM 42.1 °F 36.1 °F 28.9 °F 60% 29.62 in 10.0 mi SW 10.4 mph - N/A   Clear
11:52 PM 45.0 °F 38.2 °F 32.0 °F 60% 29.60 in 10.0 mi SSW 15.0 mph 23.0 mph N/A   Clear